{"data":{"norad_id":62169,"intl_designator":"2024-225G","name":"STARLINK-32558","alt_names":[],"object_type":"PAYLOAD","status":"ACTIVE","operator":null,"country":"US","launch_date":"2024-11-30","launch_site_code":"AFWTR","launch_vehicle":null,"mission":null,"orbit_class":"UNKNOWN","rcs_meters":null,"size_class":null,"mass_kg":null,"dimensions":null,"purposes":["comms"],"wikipedia_slug":null,"has_3d_model":false,"image_url":null,"decayed_at":null,"tle_current":{"epoch":"2026-05-24T22:18:33.888096Z","epoch_age_seconds":74497,"freshness":"FRESH","line1":"1 62169U 24225G   26144.92955889  .00003320  00000+0  28587-3 0  9991","line2":"2 62169  70.0019 332.2793 0002669 267.3327  92.7526 14.98337415 81291","mean_motion":14.98337415,"eccentricity":0.0002669,"inclination_deg":70.0019,"raan_deg":332.2793,"arg_perigee_deg":267.3327,"mean_anomaly_deg":92.7526,"bstar":0.00028587,"rev_number":8129,"period_min":96.106523509593,"perigee_km":570.17796040062,"apogee_km":573.88796112567,"semimajor_km":6950.1699607631,"source":"CELESTRAK","updated_at":"2026-05-25T13:38:19.601463Z"}}}